Last 24 Hours

Thomas Mountain

10 Minute Data | America/Los_Angeles
as of 5/6/26 9:17 PM PDT
Date & Time Temp (°F) Dew Pt (°F) RH (%) Wind Spd (mph) Wind Dir (°) Wind Gust (mph) Wind Gst Dir (°) Daily Max Temp (°F) Daily Min Temp (°F)
5/6/26 - 2110 53.8 44.5 71 7.6 NNE | 18 10.7 N | 3 66.1 37.6
5/6/26 - 2100 54.2 44.4 69 8.1 N | 10 11.0 N | 0 66.1 37.6
5/6/26 - 2050 54.8 44.0 67 7.6 NNE | 15 10.1 N | 6 66.1 37.6
5/6/26 - 2040 55.3 43.9 65 8.0 NNE | 18 11.6 NNE | 14 66.1 37.6
5/6/26 - 2030 55.3 43.2 64 6.6 NNE | 15 9.6 N | 8 66.1 37.6
5/6/26 - 2020 55.8 42.8 61 6.3 NNE | 16 8.9 NNE | 30 66.1 37.6
5/6/26 - 2010 56.4 42.6 60 7.7 NNE | 25 11.2 NNE | 22 66.1 37.6
5/6/26 - 2000 56.7 42.6 59 8.4 NNE | 23 12.6 NNE | 22 66.1 37.6
5/6/26 - 1950 57.2 42.3 57 9.7 NNE | 17 13.3 N | 11 66.1 37.6
5/6/26 - 1940 57.4 42.3 57 10.2 NNE | 14 14.3 N | 4 66.1 37.6
5/6/26 - 1930 57.4 42.8 58 10.8 NNE | 15 17.3 NNE | 15 66.1 37.6
5/6/26 - 1920 57.3 43.2 59 9.7 NNE | 15 13.3 NNE | 18 66.1 37.6
5/6/26 - 1910 57.8 43.2 58 10.7 NNE | 17 15.6 NNE | 22 66.1 37.6
5/6/26 - 1900 58.4 43.0 56 9.5 NNE | 22 13.2 NNE | 25 66.1 37.6
5/6/26 - 1850 59.1 42.8 55 8.7 NNE | 19 12.9 N | 5 66.1 37.6
5/6/26 - 1840 60.0 42.4 52 8.4 NNE | 21 12.6 N | 6 66.1 37.6
5/6/26 - 1830 60.7 42.1 50 8.5 NNE | 22 12.1 NNE | 26 66.1 37.6
5/6/26 - 1820 61.3 41.8 49 9.6 NNE | 22 13.7 NNE | 13 66.1 37.6
5/6/26 - 1810 61.8 41.3 47 8.1 NNE | 17 11.9 NNE | 20 66.1 37.6
5/6/26 - 1800 62.6 40.5 44 8.9 NNE | 28 14.0 NNE | 23 66.1 37.6
5/6/26 - 1750 63.2 40.2 43 7.4 NNE | 22 12.4 NNE | 21 66.1 37.6
5/6/26 - 1740 63.7 39.8 41 8.1 NNE | 31 11.6 NNE | 30 66.1 37.6
5/6/26 - 1730 63.7 39.7 41 10.5 NE | 36 15.9 NE | 48 66.1 37.6
5/6/26 - 1720 64.3 39.5 40 9.2 NNE | 33 15.4 NE | 49 66.1 37.6
5/6/26 - 1710 65.2 39.8 39 7.6 ENE | 57 16.1 ENE | 57 66.1 37.6
5/6/26 - 1700 64.3 39.8 40 9.0 SSE | 152 17.8 ENE | 74 66.1 37.6
5/6/26 - 1650 65.0 39.9 40 9.5 SSW | 207 17.1 SSW | 206 66.1 37.6
5/6/26 - 1640 64.5 40.2 41 4.9 SSW | 192 14.0 S | 191 66.1 37.6
5/6/26 - 1630 64.4 39.0 39 7.9 ESE | 117 15.8 SE | 127 66.0 37.6
5/6/26 - 1620 65.0 35.2 33 5.0 E | 90 11.9 ENE | 78 66.0 37.6
5/6/26 - 1610 65.3 35.6 33 5.5 ESE | 115 12.4 ESE | 108 66.0 37.6
5/6/26 - 1600 64.8 35.2 33 9.9 E | 95 16.9 E | 84 66.0 37.6
5/6/26 - 1550 64.2 35.6 35 3.9 ENE | 74 11.3 ENE | 72 66.0 37.6
5/6/26 - 1540 63.9 35.6 35 4.5 ESE | 102 11.6 ESE | 121 66.0 37.6
5/6/26 - 1530 64.6 35.8 34 7.6 E | 81 16.4 ENE | 77 66.0 37.6
5/6/26 - 1520 64.2 35.4 34 8.6 ENE | 75 20.0 E | 88 66.0 37.6
5/6/26 - 1510 65.0 35.9 34 6.4 NE | 46 13.0 ENE | 77 66.0 37.6
5/6/26 - 1500 64.4 36.0 35 6.4 ENE | 61 13.4 ESE | 107 65.6 37.6
5/6/26 - 1450 64.4 35.2 34 6.3 NE | 44 11.6 NNW | 346 65.6 37.6
5/6/26 - 1440 64.0 34.8 34 6.1 NE | 51 14.2 NE | 44 65.6 37.6
5/6/26 - 1430 64.1 34.9 34 7.1 ENE | 77 16.4 E | 82 65.6 37.6
5/6/26 - 1420 64.4 35.2 34 5.2 ENE | 61 12.7 E | 87 65.6 37.6
5/6/26 - 1410 63.2 34.6 34 5.6 ENE | 75 11.2 ENE | 75 65.0 37.6
5/6/26 - 1400 63.9 35.0 34 7.2 E | 82 16.7 E | 79 65.0 37.6
5/6/26 - 1350 63.8 34.8 34 5.6 NE | 52 15.1 ENE | 63 65.0 37.6
5/6/26 - 1340 63.9 36.8 37 5.1 SE | 132 14.6 E | 85 65.0 37.6
5/6/26 - 1330 63.6 35.0 34 4.8 E | 88 11.1 NE | 52 65.0 37.6
5/6/26 - 1320 63.9 35.4 34 4.8 ENE | 60 14.1 ENE | 70 65.0 37.6
5/6/26 - 1310 63.1 35.0 35 6.8 NE | 48 21.3 ENE | 61 65.0 37.6
5/6/26 - 1300 63.4 34.9 34 5.6 NE | 56 15.1 NE | 51 65.0 37.6
5/6/26 - 1250 63.4 34.7 34 4.2 NE | 45 10.4 E | 88 65.0 37.6
5/6/26 - 1240 63.5 35.2 35 4.2 NE | 54 10.6 NE | 34 65.0 37.6
5/6/26 - 1230 62.1 34.8 36 7.6 ENE | 73 15.2 ENE | 65 62.8 37.6
5/6/26 - 1220 60.9 38.1 43 3.6 ESE | 109 12.1 E | 95 62.0 37.6
5/6/26 - 1210 59.1 40.3 50 2.2 S | 186 6.5 SSW | 210 59.8 37.6
5/6/26 - 1200 58.6 40.6 51 4.7 WSW | 238 13.7 W | 260 59.4 37.6
5/6/26 - 1150 58.1 40.6 52 5.4 WSW | 243 9.9 WSW | 245 58.9 37.6
5/6/26 - 1140 58.1 40.7 52 7.1 WSW | 243 12.4 SW | 224 58.9 37.6
5/6/26 - 1130 57.5 40.7 53 7.8 WSW | 255 13.7 WSW | 246 58.4 37.6
5/6/26 - 1120 57.4 40.4 53 7.7 WSW | 247 15.2 WSW | 249 58.4 37.6
5/6/26 - 1110 56.8 40.0 53 7.3 WSW | 245 14.8 WSW | 248 57.7 37.6
5/6/26 - 1100 56.4 39.8 53 8.1 SW | 236 15.1 SW | 220 57.5 37.6
5/6/26 - 1050 56.3 38.9 52 7.7 WSW | 240 14.5 SSW | 196 57.5 37.6
5/6/26 - 1040 55.7 39.2 54 8.5 WSW | 247 14.3 WSW | 246 56.6 37.6
5/6/26 - 1030 54.8 40.1 58 7.8 WSW | 247 13.4 WSW | 253 55.7 37.6
5/6/26 - 1020 54.2 40.4 60 7.0 WSW | 247 12.9 WSW | 258 54.5 37.6
5/6/26 - 1010 53.6 41.5 63 7.4 WSW | 247 12.2 WSW | 256 54.3 37.6
5/6/26 - 1000 53.0 41.4 64 7.4 WSW | 246 11.6 WSW | 248 53.5 37.6
5/6/26 - 0950 52.2 41.4 66 7.6 WSW | 247 11.7 WSW | 252 52.5 37.6
5/6/26 - 0940 51.7 41.4 68 7.1 WSW | 243 10.2 SW | 233 52.4 37.6
5/6/26 - 0930 51.8 42.2 70 5.8 WSW | 246 9.9 WSW | 248 52.4 37.6
5/6/26 - 0920 51.5 42.2 70 4.9 SW | 228 7.7 WSW | 252 52.4 37.6
5/6/26 - 0910 50.8 40.8 68 4.3 WSW | 239 6.6 SW | 225 52.4 37.6
5/6/26 - 0900 50.2 39.5 67 4.4 WSW | 243 7.0 WSW | 253 52.4 37.6
5/6/26 - 0850 51.0 39.6 65 3.5 SW | 235 5.4 WSW | 244 52.4 37.6
5/6/26 - 0840 51.9 37.4 58 2.8 NE | 43 7.3 NE | 45 52.4 37.6
5/6/26 - 0830 50.6 36.1 57 6.2 NE | 43 8.4 NE | 41 51.1 37.6
5/6/26 - 0820 50.1 35.4 57 6.9 NE | 39 10.0 NE | 41 50.3 37.6
5/6/26 - 0810 49.7 36.1 59 7.1 NE | 34 11.1 NE | 45 49.9 37.6
5/6/26 - 0800 49.0 36.8 63 6.5 NE | 42 10.4 NE | 44 49.5 37.6
5/6/26 - 0750 48.2 37.5 66 5.5 NE | 50 8.6 NE | 34 48.5 37.6
5/6/26 - 0740 47.0 37.2 69 6.3 NE | 50 8.8 NE | 54 47.6 37.6
5/6/26 - 0730 46.2 36.8 69 7.8 NE | 43 11.0 NE | 36 46.5 37.6
5/6/26 - 0720 45.9 36.5 70 7.4 NE | 44 9.4 NE | 47 46.0 37.6
5/6/26 - 0710 45.2 36.2 70 6.5 NE | 34 9.2 NNE | 20 45.9 37.6
5/6/26 - 0700 44.2 35.9 72 6.7 NE | 36 9.4 NNE | 22 44.6 37.6
5/6/26 - 0650 43.4 35.7 74 6.2 NE | 35 8.4 NNE | 24 44.0 37.6
5/6/26 - 0640 43.6 35.2 72 6.5 NE | 39 8.1 NE | 34 44.0 37.6
5/6/26 - 0630 42.0 35.3 77 5.1 NNE | 22 7.3 NNE | 17 43.2 37.6
5/6/26 - 0620 41.6 35.2 78 6.6 NNE | 24 9.3 NNE | 15 42.0 37.6
5/6/26 - 0610 41.1 34.9 78 6.2 NNE | 30 8.7 NNE | 20 41.8 37.6
5/6/26 - 0600 41.2 34.9 78 6.7 NNE | 31 9.3 NE | 34 41.5 37.6
5/6/26 - 0550 38.6 35.9 90 6.8 NNE | 20 10.2 N | 0 40.6 37.6
5/6/26 - 0540 38.3 36.1 92 5.9 NNE | 25 8.7 NNE | 30 38.8 37.6
5/6/26 - 0530 38.4 36.3 92 6.9 NNE | 27 10.4 NNE | 27 38.8 37.6
5/6/26 - 0520 38.3 36.2 92 7.3 NNE | 20 10.8 N | 11 38.8 37.6
5/6/26 - 0510 38.4 36.2 92 7.4 NNE | 18 10.3 NNE | 16 38.8 37.6
5/6/26 - 0500 38.2 36.3 93 7.5 NNE | 15 11.0 NNE | 17 38.8 37.6
5/6/26 - 0450 38.2 36.4 93 8.1 NNE | 18 12.4 N | 11 38.8 37.6
5/6/26 - 0440 38.4 36.3 92 8.1 NNE | 24 10.8 N | 8 38.8 37.6
5/6/26 - 0430 38.5 36.2 92 6.7 NNE | 17 10.4 NNE | 13 38.8 37.6
5/6/26 - 0420 38.4 36.2 92 4.4 NNE | 20 9.1 NNE | 30 38.8 37.6
5/6/26 - 0410 38.5 36.2 91 3.2 N | 357 6.6 N | 0 38.8 37.6
5/6/26 - 0400 38.3 36.6 94 5.6 N | 10 9.1 N | 10 38.8 37.6
5/6/26 - 0350 38.1 36.7 95 6.4 NNE | 18 9.8 NNE | 32 38.8 37.6
5/6/26 - 0340 37.8 36.7 96 4.4 NNE | 31 6.4 NNE | 22 38.8 37.6
5/6/26 - 0330 38.1 36.9 95 6.1 NE | 36 10.3 NE | 43 38.8 37.9
5/6/26 - 0320 38.2 36.9 95 8.5 NE | 38 12.6 NNE | 25 38.8 38.0
5/6/26 - 0310 38.2 36.7 94 8.6 NE | 40 12.2 NNE | 30 38.8 38.0
5/6/26 - 0300 38.2 36.6 94 7.1 NNE | 22 10.9 NNE | 18 38.8 38.0
5/6/26 - 0250 38.4 36.6 93 7.0 NNE | 24 10.6 NNE | 22 38.8 38.0
5/6/26 - 0240 38.3 36.6 94 7.2 NNE | 17 10.7 N | 11 38.8 38.0
5/6/26 - 0230 38.2 36.7 94 8.1 NNE | 18 13.7 NNE | 32 38.8 38.0
5/6/26 - 0220 38.2 36.7 94 9.0 N | 0 13.8 NE | 38 38.8 38.0
5/6/26 - 0210 38.3 36.6 94 11.0 NNE | 20 15.5 N | 7 38.8 38.1
5/6/26 - 0200 38.7 36.8 93 12.7 NNE | 23 17.7 NNE | 19 38.8 38.1
5/6/26 - 0150 38.7 36.8 93 11.8 NNE | 19 16.8 NNE | 18 38.8 38.1
5/6/26 - 0140 38.4 37.0 95 11.1 NNE | 16 16.3 NNE | 16 38.7 38.1
5/6/26 - 0130 38.2 37.1 96 10.4 NNE | 14 14.6 N | 352 38.7 38.1
5/6/26 - 0120 38.1 36.9 95 7.2 NNE | 13 12.4 NNE | 22 38.7 38.1
5/6/26 - 0110 38.3 36.9 95 6.0 NNE | 12 9.0 NNE | 19 38.7 38.1
5/6/26 - 0100 38.7 37.6 96 3.6 NNE | 18 6.2 NNE | 27 48.4 37.8
5/6/26 - 0050 38.5 37.8 97 1.6 N | 349 4.1 NNW | 338 48.4 37.8
5/6/26 - 0040 38.9 37.8 96 1.0 ESE | 113 2.7 ESE | 116 48.4 37.8
5/6/26 - 0030 39.4 37.6 93 2.0 N | 2 6.2 N | 351 48.4 37.8
5/6/26 - 0020 39.6 37.7 93 1.7 N | 3 4.8 N | 4 48.4 37.8
5/6/26 - 0010 39.4 37.8 94 2.5 NW | 323 4.7 NNW | 335 48.4 37.8
5/6/26 - 0000 39.2 38.1 96 2.8 NW | 316 7.7 NNW | 340 48.4 37.8
5/5/26 - 2350 39.3 37.9 95 3.9 NW | 314 9.4 N | 2 48.4 37.8
5/5/26 - 2340 39.2 38.6 98 5.8 NNW | 336 10.7 N | 350 48.4 37.8
5/5/26 - 2330 39.0 39.0 100 1.9 NW | 315 8.1 NNW | 339 48.4 37.8
5/5/26 - 2320 39.1 39.0 100 0.8 WNW | 302 2.5 NNW | 337 48.4 37.8
5/5/26 - 2310 39.1 39.0 100 2.3 WNW | 301 4.5 W | 266 48.4 37.8
5/5/26 - 2300 39.2 39.1 100 3.3 W | 259 6.1 WSW | 253 48.4 37.8
5/5/26 - 2250 39.2 39.1 100 2.7 W | 279 4.7 WSW | 258 48.4 37.8
5/5/26 - 2240 39.2 39.0 99 3.0 WSW | 254 4.6 W | 277 48.4 37.8
5/5/26 - 2230 39.2 39.0 99 2.7 WSW | 256 4.2 W | 274 48.4 37.8
5/5/26 - 2220 39.2 39.0 99 2.8 W | 271 4.0 W | 271 48.4 37.8
5/5/26 - 2210 39.2 38.9 99 3.1 W | 262 5.3 WSW | 255 48.4 37.8
5/5/26 - 2200 39.4 39.0 99 3.1 WSW | 248 5.0 SW | 235 48.4 37.8
5/5/26 - 2150 39.4 39.1 99 2.9 W | 259 4.3 WSW | 252 48.4 37.8
5/5/26 - 2140 39.5 39.1 99 2.9 W | 269 4.8 W | 281 48.4 37.8
5/5/26 - 2130 39.7 39.2 98 2.6 WSW | 258 4.7 WSW | 248 48.4 37.8
5/5/26 - 2120 39.8 39.3 98 2.5 W | 269 3.9 WSW | 253 48.4 37.8
5/5/26 - 2110 40.1 39.4 97 1.1 W | 274 3.4 WSW | 254 48.4 37.8
Max 65.3 44.5 100 12.7 - 21.3 - 66.1 38.1
Avg 50.4 38.3 68 6.3 - 11.0 - - -
Min 37.8 34.6 33 0.8 - 2.5 - 38.7 37.6